Time,TemperatureF,DewpointF,PressureIn,WindDirection,WindDirectionDegrees,WindSpeedMPH,WindSpeedGustMPH,Humidity,HourlyPrecipIn,Conditions,Clouds,dailyrainin,SoftwareType,DateUTC
2013-02-07 00:02:00,48.0,31.0,30.04,ESE,103,4.0,-999.0,51,-99.99,,,-99.99,,2013-02-07 06:02:00,
2013-02-07 00:11:00,48.0,31.0,30.04,ESE,103,4.0,-999.0,51,-99.99,,,-99.99,,2013-02-07 06:11:00,
2013-02-07 00:22:00,48.0,31.0,30.04,ESE,111,4.0,-999.0,52,-99.99,,,-99.99,,2013-02-07 06:22:00,
2013-02-07 00:32:00,48.0,31.0,30.04,ESE,102,4.0,-999.0,52,-99.99,,,-99.99,,2013-02-07 06:32:00,
2013-02-07 00:43:00,48.0,31.0,30.04,ESE,102,4.0,-999.0,52,-99.99,,,-99.99,,2013-02-07 06:43:00,
2013-02-07 00:52:00,48.0,31.0,30.04,ESE,107,4.0,-999.0,52,-99.99,,,-99.99,,2013-02-07 06:52:00,
2013-02-07 01:01:00,48.0,31.0,30.04,ESE,106,3.0,-999.0,52,-99.99,,,-99.99,,2013-02-07 07:01:00,
2013-02-07 01:11:00,48.0,31.0,30.03,East,88,4.0,-999.0,52,-99.99,,,-99.99,,2013-02-07 07:11:00,
2013-02-07 01:22:00,48.0,31.0,30.03,East,88,4.0,-999.0,52,-99.99,,,-99.99,,2013-02-07 07:22:00,
2013-02-07 01:32:00,48.0,31.0,30.02,ESE,105,4.0,-999.0,52,-99.99,,,-99.99,,2013-02-07 07:32:00,
2013-02-07 01:42:00,48.0,31.0,30.02,ESE,105,4.0,-999.0,52,-99.99,,,-99.99,,2013-02-07 07:42:00,
2013-02-07 01:52:00,48.0,32.0,30.02,East,101,3.0,-999.0,53,-99.99,,,-99.99,,2013-02-07 07:52:00,
2013-02-07 02:01:00,48.0,32.0,30.02,ESE,117,2.0,-999.0,53,-99.99,,,-99.99,,2013-02-07 08:01:00,
2013-02-07 02:11:00,48.0,32.0,30.02,ESE,117,2.0,-999.0,53,-99.99,,,-99.99,,2013-02-07 08:11:00,
2013-02-07 02:21:00,48.0,32.0,30.02,ESE,103,3.0,-999.0,53,-99.99,,,-99.99,,2013-02-07 08:21:00,
2013-02-07 02:32:00,48.0,32.0,30.02,East,96,3.0,-999.0,54,-99.99,,,-99.99,,2013-02-07 08:32:00,
2013-02-07 02:42:00,48.0,32.0,30.02,East,96,3.0,-999.0,54,-99.99,,,-99.99,,2013-02-07 08:42:00,
2013-02-07 02:52:00,48.0,32.0,30.01,East,96,2.0,-999.0,53,-99.99,,,-99.99,,2013-02-07 08:52:00,
2013-02-07 03:01:00,48.0,32.0,30.01,East,84,3.0,-999.0,54,-99.99,,,-99.99,,2013-02-07 09:01:00,
2013-02-07 03:11:00,48.0,32.0,30.01,East,84,3.0,-999.0,54,-99.99,,,-99.99,,2013-02-07 09:11:00,
2013-02-07 03:21:00,48.0,32.0,30.00,East,83,2.0,-999.0,54,-99.99,,,-99.99,,2013-02-07 09:21:00,
2013-02-07 03:31:00,48.0,33.0,29.99,East,101,3.0,-999.0,55,-99.99,,,-99.99,,2013-02-07 09:31:00,
2013-02-07 03:41:00,48.0,33.0,29.99,East,101,3.0,-999.0,55,-99.99,,,-99.99,,2013-02-07 09:41:00,
2013-02-07 03:52:00,47.0,32.0,29.98,ESE,106,3.0,-999.0,55,-99.99,,,-99.99,,2013-02-07 09:52:00,
2013-02-07 04:01:00,47.0,32.0,29.98,East,101,2.0,-999.0,56,-99.99,,,-99.99,,2013-02-07 10:01:00,
2013-02-07 04:11:00,47.0,32.0,29.98,East,101,2.0,-999.0,56,-99.99,,,-99.99,,2013-02-07 10:11:00,
2013-02-07 04:22:00,46.0,33.0,29.98,SE,128,2.0,-999.0,60,-99.99,,,-99.99,,2013-02-07 10:22:00,
2013-02-07 04:32:00,46.0,33.0,29.98,SE,124,2.0,-999.0,61,-99.99,,,-99.99,,2013-02-07 10:32:00,
2013-02-07 04:42:00,46.0,33.0,29.98,SE,124,2.0,-999.0,61,-99.99,,,-99.99,,2013-02-07 10:42:00,
2013-02-07 04:52:00,45.0,33.0,29.98,SE,126,1.0,-999.0,62,-99.99,,,-99.99,,2013-02-07 10:52:00,
2013-02-07 05:01:00,45.0,33.0,29.97,ESE,121,0.0,-999.0,62,-99.99,,,-99.99,,2013-02-07 11:01:00,
2013-02-07 05:11:00,45.0,33.0,29.97,ESE,121,0.0,-999.0,62,-99.99,,,-99.99,,2013-02-07 11:11:00,
2013-02-07 05:22:00,45.0,33.0,29.97,SE,129,0.0,-999.0,62,-99.99,,,-99.99,,2013-02-07 11:22:00,
2013-02-07 05:32:00,45.0,33.0,29.97,SE,124,0.0,-999.0,63,-99.99,,,-99.99,,2013-02-07 11:32:00,
2013-02-07 05:44:00,45.0,33.0,29.97,SE,124,0.0,-999.0,63,-99.99,,,-99.99,,2013-02-07 11:44:00,
2013-02-07 05:52:00,44.0,33.0,29.97,SE,124,0.0,-999.0,64,-99.99,,,-99.99,,2013-02-07 11:52:00,
2013-02-07 06:02:00,44.0,33.0,29.96,ESE,115,0.0,-999.0,64,-99.99,,,-99.99,,2013-02-07 12:02:00,
2013-02-07 06:11:00,44.0,33.0,29.96,ESE,115,0.0,-999.0,64,-99.99,,,-99.99,,2013-02-07 12:11:00,
2013-02-07 06:22:00,44.0,32.0,29.96,ESE,121,1.0,-999.0,63,-99.99,,,-99.99,,2013-02-07 12:22:00,
2013-02-07 06:32:00,45.0,33.0,29.95,SE,126,1.0,-999.0,63,-99.99,,,-99.99,,2013-02-07 12:32:00,
2013-02-07 06:42:00,45.0,33.0,29.95,SE,126,1.0,-999.0,63,-99.99,,,-99.99,,2013-02-07 12:42:00,
2013-02-07 06:53:00,45.0,33.0,29.95,East,99,1.0,-999.0,63,-99.99,,,-99.99,,2013-02-07 12:53:00,
2013-02-07 07:02:00,44.0,33.0,29.95,ESE,113,1.0,-999.0,64,-99.99,,,-99.99,,2013-02-07 13:02:00,
2013-02-07 07:12:00,44.0,33.0,29.95,ESE,113,1.0,-999.0,64,-99.99,,,-99.99,,2013-02-07 13:12:00,
2013-02-07 07:22:00,44.0,33.0,29.96,ESE,107,1.0,-999.0,65,-99.99,,,-99.99,,2013-02-07 13:22:00,
2013-02-07 07:32:00,45.0,34.0,29.96,ESE,104,2.0,-999.0,64,-99.99,,,-99.99,,2013-02-07 13:32:00,
2013-02-07 07:42:00,45.0,34.0,29.96,ESE,104,2.0,-999.0,64,-99.99,,,-99.99,,2013-02-07 13:42:00,
2013-02-07 07:52:00,45.0,33.0,29.96,ESE,112,3.0,-999.0,63,-99.99,,,-99.99,,2013-02-07 13:52:00,
2013-02-07 08:01:00,45.0,34.0,29.96,SE,140,2.0,-999.0,64,-99.99,,,-99.99,,2013-02-07 14:01:00,
2013-02-07 08:11:00,45.0,34.0,29.96,SE,140,2.0,-999.0,64,-99.99,,,-99.99,,2013-02-07 14:11:00,
2013-02-07 08:21:00,48.0,36.0,29.96,East,101,3.0,-999.0,62,-99.99,,,-99.99,,2013-02-07 14:21:00,
2013-02-07 08:32:00,49.0,36.0,29.96,ESE,104,3.0,-999.0,61,-99.99,,,-99.99,,2013-02-07 14:32:00,
2013-02-07 08:42:00,49.0,36.0,29.96,ESE,104,3.0,-999.0,61,-99.99,,,-99.99,,2013-02-07 14:42:00,
2013-02-07 08:52:00,50.0,36.0,29.97,SE,140,4.0,-999.0,59,-99.99,,,-99.99,,2013-02-07 14:52:00,
2013-02-07 09:01:00,50.0,36.0,29.96,ESE,123,4.0,-999.0,59,-99.99,,,-99.99,,2013-02-07 15:01:00,
2013-02-07 09:11:00,50.0,36.0,29.96,ESE,123,4.0,-999.0,59,-99.99,,,-99.99,,2013-02-07 15:11:00,
2013-02-07 09:22:00,51.0,38.0,29.96,ESE,107,3.0,-999.0,60,-99.99,,,-99.99,,2013-02-07 15:22:00,
2013-02-07 09:32:00,52.0,39.0,29.96,ESE,121,4.0,-999.0,60,-99.99,,,-99.99,,2013-02-07 15:32:00,
2013-02-07 09:42:00,52.0,39.0,29.96,ESE,121,4.0,-999.0,60,-99.99,,,-99.99,,2013-02-07 15:42:00,
2013-02-07 09:52:00,55.0,41.0,29.95,SE,142,7.0,-999.0,60,-99.99,,,-99.99,,2013-02-07 15:52:00,
2013-02-07 10:01:00,56.0,42.0,29.95,South,171,8.0,-999.0,59,-99.99,,,-99.99,,2013-02-07 16:01:00,
2013-02-07 10:21:00,57.0,43.0,29.95,SE,142,9.0,-999.0,60,-99.99,,,-99.99,,2013-02-07 16:21:00,
2013-02-07 10:32:00,57.0,43.0,29.95,SE,140,6.0,-999.0,59,-99.99,,,-99.99,,2013-02-07 16:32:00,
2013-02-07 10:41:00,57.0,43.0,29.95,SE,140,6.0,-999.0,59,-99.99,,,-99.99,,2013-02-07 16:41:00,
2013-02-07 10:52:00,58.0,44.0,29.95,SSE,155,5.0,-999.0,59,-99.99,,,-99.99,,2013-02-07 16:52:00,
2013-02-07 11:01:00,59.0,45.0,29.95,SSW,210,5.0,-999.0,60,-99.99,,,-99.99,,2013-02-07 17:01:00,
2013-02-07 11:11:00,59.0,45.0,29.95,SSW,210,5.0,-999.0,60,-99.99,,,-99.99,,2013-02-07 17:11:00,
2013-02-07 11:21:00,60.0,47.0,29.95,South,184,3.0,-999.0,62,-99.99,,,-99.99,,2013-02-07 17:21:00,
2013-02-07 11:31:00,60.0,47.0,29.95,South,184,3.0,-999.0,62,-99.99,,,-99.99,,2013-02-07 17:31:00,
2013-02-07 11:42:00,60.0,47.0,29.95,South,184,3.0,-999.0,62,-99.99,,,-99.99,,2013-02-07 17:42:00,
2013-02-07 11:52:00,62.0,50.0,29.94,SW,219,4.0,-999.0,64,-99.99,,,-99.99,,2013-02-07 17:52:00,
2013-02-07 12:01:00,61.0,49.0,29.94,SSW,205,7.0,-999.0,65,-99.99,,,-99.99,,2013-02-07 18:01:00,
2013-02-07 12:11:00,61.0,49.0,29.94,SSW,205,7.0,-999.0,65,-99.99,,,-99.99,,2013-02-07 18:11:00,
2013-02-07 12:23:00,61.0,50.0,29.93,SW,219,5.0,-999.0,66,-99.99,,,-99.99,,2013-02-07 18:23:00,
2013-02-07 12:31:00,63.0,51.0,29.92,WSW,250,4.0,-999.0,66,-99.99,,,-99.99,,2013-02-07 18:31:00,
2013-02-07 12:42:00,63.0,51.0,29.92,WSW,250,4.0,-999.0,66,-99.99,,,-99.99,,2013-02-07 18:42:00,
2013-02-07 12:52:00,63.0,51.0,29.91,SW,221,4.0,-999.0,65,-99.99,,,-99.99,,2013-02-07 18:52:00,
2013-02-07 13:01:00,63.0,51.0,29.91,SSE,163,6.0,-999.0,65,-99.99,,,-99.99,,2013-02-07 19:01:00,
2013-02-07 13:11:00,63.0,51.0,29.91,SSE,163,6.0,-999.0,65,-99.99,,,-99.99,,2013-02-07 19:11:00,
2013-02-07 13:22:00,62.0,51.0,29.91,SSW,207,5.0,-999.0,68,-99.99,,,-99.99,,2013-02-07 19:22:00,
2013-02-07 13:32:00,62.0,51.0,29.90,SW,217,7.0,-999.0,68,-99.99,,,-99.99,,2013-02-07 19:32:00,
2013-02-07 13:41:00,62.0,51.0,29.90,SW,217,7.0,-999.0,68,-99.99,,,-99.99,,2013-02-07 19:41:00,
2013-02-07 13:52:00,63.0,52.0,29.89,SW,219,7.0,-999.0,68,-99.99,,,-99.99,,2013-02-07 19:52:00,
2013-02-07 14:01:00,64.0,53.0,29.89,SW,226,7.0,-999.0,68,-99.99,,,-99.99,,2013-02-07 20:01:00,
2013-02-07 14:11:00,64.0,53.0,29.89,SW,226,7.0,-999.0,68,-99.99,,,-99.99,,2013-02-07 20:11:00,
2013-02-07 14:22:00,63.0,53.0,29.88,SSW,211,5.0,-999.0,69,-99.99,,,-99.99,,2013-02-07 20:22:00,
2013-02-07 14:31:00,63.0,53.0,29.87,SSW,200,6.0,-999.0,69,-99.99,,,-99.99,,2013-02-07 20:31:00,
2013-02-07 14:41:00,63.0,53.0,29.87,SSW,200,6.0,-999.0,69,-99.99,,,-99.99,,2013-02-07 20:41:00,
2013-02-07 14:52:00,63.0,53.0,29.87,SW,229,6.0,-999.0,69,-99.99,,,-99.99,,2013-02-07 20:52:00,
2013-02-07 15:01:00,64.0,53.0,29.86,SW,227,5.0,-999.0,67,-99.99,,,-99.99,,2013-02-07 21:01:00,
2013-02-07 15:11:00,64.0,53.0,29.86,SW,227,5.0,-999.0,67,-99.99,,,-99.99,,2013-02-07 21:11:00,
2013-02-07 15:21:00,64.0,53.0,29.86,SSW,209,5.0,-999.0,68,-99.99,,,-99.99,,2013-02-07 21:21:00,
2013-02-07 15:31:00,64.0,53.0,29.85,SW,229,2.0,-999.0,68,-99.99,,,-99.99,,2013-02-07 21:31:00,
2013-02-07 15:42:00,64.0,53.0,29.85,SW,229,2.0,-999.0,68,-99.99,,,-99.99,,2013-02-07 21:42:00,
2013-02-07 15:52:00,64.0,53.0,29.86,SSW,209,6.0,-999.0,67,-99.99,,,-99.99,,2013-02-07 21:52:00,
2013-02-07 16:02:00,64.0,54.0,29.86,SSW,206,5.0,-999.0,69,-99.99,,,-99.99,,2013-02-07 22:02:00,
2013-02-07 16:11:00,64.0,54.0,29.86,SSW,206,5.0,-999.0,69,-99.99,,,-99.99,,2013-02-07 22:11:00,
2013-02-07 16:21:00,63.0,53.0,29.86,WSW,243,2.0,-999.0,71,-99.99,,,-99.99,,2013-02-07 22:21:00,
2013-02-07 16:32:00,62.0,53.0,29.86,WSW,245,5.0,-999.0,72,-99.99,,,-99.99,,2013-02-07 22:32:00,
2013-02-07 16:42:00,62.0,53.0,29.86,WSW,245,5.0,-999.0,72,-99.99,,,-99.99,,2013-02-07 22:42:00,
2013-02-07 16:52:00,62.0,53.0,29.86,SW,226,2.0,-999.0,72,-99.99,,,-99.99,,2013-02-07 22:52:00,
2013-02-07 17:01:00,62.0,53.0,29.86,SW,227,1.0,-999.0,73,-99.99,,,-99.99,,2013-02-07 23:01:00,
2013-02-07 17:11:00,62.0,53.0,29.86,SW,227,1.0,-999.0,73,-99.99,,,-99.99,,2013-02-07 23:11:00,
2013-02-07 17:21:00,61.0,53.0,29.86,SW,214,0.0,-999.0,74,-99.99,,,-99.99,,2013-02-07 23:21:00,
2013-02-07 17:32:00,61.0,53.0,29.86,WSW,244,0.0,-999.0,75,-99.99,,,-99.99,,2013-02-07 23:32:00,
2013-02-07 17:41:00,61.0,53.0,29.86,WSW,244,0.0,-999.0,75,-99.99,,,-99.99,,2013-02-07 23:41:00,
2013-02-07 17:52:00,61.0,53.0,29.86,SW,234,0.0,-999.0,75,-99.99,,,-99.99,,2013-02-07 23:52:00,
2013-02-07 18:01:00,60.0,52.0,29.86,SW,230,0.0,-999.0,76,-99.99,,,-99.99,,2013-02-08 00:01:00,
2013-02-07 18:11:00,60.0,52.0,29.86,SW,230,0.0,-999.0,76,-99.99,,,-99.99,,2013-02-08 00:11:00,
2013-02-07 18:21:00,60.0,53.0,29.87,WSW,237,0.0,-999.0,77,-99.99,,,-99.99,,2013-02-08 00:21:00,
2013-02-07 18:31:00,60.0,53.0,29.87,SW,236,0.0,-999.0,78,-99.99,,,-99.99,,2013-02-08 00:31:00,
2013-02-07 18:42:00,60.0,53.0,29.87,SW,236,0.0,-999.0,78,-99.99,,,-99.99,,2013-02-08 00:42:00,
2013-02-07 18:52:00,59.0,52.0,29.86,WSW,237,0.0,-999.0,79,-99.99,,,-99.99,,2013-02-08 00:52:00,
2013-02-07 19:01:00,59.0,53.0,29.86,SW,236,0.0,-999.0,80,-99.99,,,-99.99,,2013-02-08 01:01:00,
2013-02-07 19:11:00,59.0,53.0,29.86,SW,236,0.0,-999.0,80,-99.99,,,-99.99,,2013-02-08 01:11:00,
2013-02-07 19:21:00,59.0,53.0,29.86,South,185,0.0,-999.0,80,-99.99,,,-99.99,,2013-02-08 01:21:00,
2013-02-07 19:31:00,59.0,52.0,29.86,South,188,0.0,-999.0,79,-99.99,,,-99.99,,2013-02-08 01:31:00,
2013-02-07 19:41:00,59.0,52.0,29.86,South,188,0.0,-999.0,79,-99.99,,,-99.99,,2013-02-08 01:41:00,
2013-02-07 19:52:00,59.0,52.0,29.85,SSE,161,0.0,-999.0,79,-99.99,,,-99.99,,2013-02-08 01:52:00,
2013-02-07 20:01:00,59.0,52.0,29.85,South,187,0.0,-999.0,79,-99.99,,,-99.99,,2013-02-08 02:01:00,
2013-02-07 20:11:00,59.0,52.0,29.85,South,187,0.0,-999.0,79,-99.99,,,-99.99,,2013-02-08 02:11:00,
2013-02-07 20:21:00,59.0,52.0,29.85,SSW,209,1.0,-999.0,78,-99.99,,,-99.99,,2013-02-08 02:21:00,
2013-02-07 20:32:00,59.0,52.0,29.85,SSW,206,3.0,-999.0,78,-99.99,,,-99.99,,2013-02-08 02:32:00,
2013-02-07 20:42:00,59.0,52.0,29.85,SSW,206,3.0,-999.0,78,-99.99,,,-99.99,,2013-02-08 02:42:00,
2013-02-07 20:52:00,59.0,52.0,29.85,SW,218,3.0,-999.0,78,-99.99,,,-99.99,,2013-02-08 02:52:00,
2013-02-07 21:01:00,58.0,52.0,29.86,SW,223,4.0,-999.0,79,-99.99,,,-99.99,,2013-02-08 03:01:00,
2013-02-07 21:12:00,58.0,52.0,29.86,SW,223,4.0,-999.0,79,-99.99,,,-99.99,,2013-02-08 03:12:00,
2013-02-07 21:22:00,58.0,53.0,29.87,West,269,1.0,-999.0,82,-99.99,,,-99.99,,2013-02-08 03:22:00,
2013-02-07 21:32:00,57.0,52.0,29.87,WSW,252,2.0,-999.0,83,-99.99,,,-99.99,,2013-02-08 03:32:00,
2013-02-07 21:41:00,57.0,52.0,29.87,WSW,252,2.0,-999.0,83,-99.99,,,-99.99,,2013-02-08 03:41:00,
2013-02-07 21:52:00,57.0,52.0,29.87,WSW,257,3.0,-999.0,84,-99.99,,,-99.99,,2013-02-08 03:52:00,
2013-02-07 22:01:00,57.0,53.0,29.88,West,276,2.0,-999.0,85,-99.99,,,-99.99,,2013-02-08 04:01:00,
2013-02-07 22:11:00,57.0,53.0,29.88,West,276,2.0,-999.0,85,-99.99,,,-99.99,,2013-02-08 04:11:00,
2013-02-07 22:21:00,57.0,53.0,29.88,West,259,2.0,-999.0,88,-99.99,,,-99.99,,2013-02-08 04:21:00,
2013-02-07 22:32:00,57.0,53.0,29.88,NW,318,4.0,-999.0,88,-99.99,,,-99.99,,2013-02-08 04:32:00,
2013-02-07 22:41:00,57.0,53.0,29.88,NW,318,4.0,-999.0,88,-99.99,,,-99.99,,2013-02-08 04:41:00,
2013-02-07 22:52:00,56.0,52.0,29.88,NW,326,1.0,-999.0,88,-99.99,,,-99.99,,2013-02-08 04:52:00,
2013-02-07 23:02:00,55.0,52.0,29.89,NNW,329,1.0,-999.0,88,-99.99,,,-99.99,,2013-02-08 05:02:00,
2013-02-07 23:11:00,55.0,52.0,29.89,NNW,329,1.0,-999.0,88,-99.99,,,-99.99,,2013-02-08 05:11:00,
2013-02-07 23:22:00,55.0,52.0,29.90,NW,312,0.0,-999.0,88,-99.99,,,-99.99,,2013-02-08 05:22:00,
2013-02-07 23:32:00,55.0,52.0,29.90,NNW,330,0.0,-999.0,89,-99.99,,,-99.99,,2013-02-08 05:32:00,
2013-02-07 23:42:00,55.0,52.0,29.90,NNW,330,0.0,-999.0,89,-99.99,,,-99.99,,2013-02-08 05:42:00,
2013-02-07 23:52:00,55.0,52.0,29.91,NNW,340,3.0,-999.0,89,-99.99,,,-99.99,,2013-02-08 05:52:00,